Location: Unspecified
(41.9031°N, 12.4386°E)
Time: 05:51:52
(UTC+02:00)

ISS - Pass Details

Date: 05 April 2020
Orbit: 417 x 423 km, 51.6° (Epoch: 29 March)

Event Time Altitude Azimuth Distance (km) Brightness Sun altitude
Rises 21:02:39 0° 297° (WNW) 2,360 2.0 -15.4°
Reaches altitude 10° 21:04:54 10° 287° (WNW) 1,493 0.4 -15.8°
Maximum altitude 21:07:53 30° 224° (SW) 765 -2.3 -16.3°
Enters shadow 21:09:24 21° 178° (S) 1,001 -2.1 -16.6°
